Météo

Actualisé à 22h00, Lille

icon

T : 15 °C / H : 72 %
Pression : 1016 Hpa
Vent d'est : 4 Km/h

ciel clair

2024/05/25 21:00 LFQQ 252100Z AUTO 10002KT CAVOK 15/10 Q1016 NOSIG

Mots clés

Internet web infographiste flyers illustrateur graphiste webmaster PAO assistance informatique logo image invitation affiche création réalisation conception site vitrine voeux carte visite publication publicité impression plaquette charte graphique identité visuelle maintenance freelance


CSS Valide ! Valid HTML 5.0

Bienvenue

Ce site a été réalisé afin de vous faire découvrir mon métier, mes compétences, mon savoir-faire et bien entendu mes services. Vous s'y trouverez également une selection de logiciels et de liens divers et variés.



Infographiste - Web Designer

Je réalise votre logo - votre charte graphique.
Je peux également réaliser votre affiche - flyer - plaquette commerciale - catalogue publicitaire - espace pub - carte d'invitation - carte de visite - carte de fidélité - pochette cd-room ou encore votre présentation cd-room - site internet - maquette d'objet publicitaire.

Si mes services vous intéressent n'hésitez pas à me contacter.